Overview Statistics Trail Chart Weather Telemetry Raw packets
 

This is the latest recevied weather packets stored in our database for station/object KA1JKB. If no packets are shown the sender has not sent any weather packets the latest 10 day(s).

<< 1 2 3 4 5 6 >>
Time Temp. Humidity Pressure Rain* Wind** Luminosity Snow
1788454621 28.89° C 81% 1012.2 hPa 0 mm - 419 W/m² -
1788454317 28.89° C 81% 1012 hPa 0 mm - 476 W/m² -
1788454011 28.89° C 80% 1012.2 hPa 0 mm - 520 W/m² -
1788453707 28.89° C 81% 1012.1 hPa 0 mm - 642 W/m² -
1788453410 29.44° C 77% 1012.1 hPa 0 mm - 443 W/m² -
1788453103 28.89° C 78% 1012.1 hPa 0 mm - 669 W/m² -
1788452799 28.89° C 76% 1012.2 hPa 0 mm - 750 W/m² -
1788452495 28.33° C 75% 1012.2 hPa 0 mm - 695 W/m² -
1788452190 28.89° C 74% 1012.4 hPa 0 mm - 283 W/m² -
1788451886 28.89° C 73% 1012.6 hPa 0 mm - 488 W/m² -
1788451581 29.44° C 73% 1012.7 hPa 0 mm - 321 W/m² -
1788451275 28.89° C 73% 1012.7 hPa 0 mm - 721 W/m² -
1788450974 28.89° C 72% 1012.8 hPa 0 mm - 707 W/m² -
1788450669 28.33° C 77% 1012.7 hPa 0 mm - 724 W/m² -
1788450365 27.78° C 77% 1012.9 hPa 0 mm - 787 W/m² -
1788450061 27.78° C 79% 1013.1 hPa 0 mm - 743 W/m² -
1788449756 27.22° C 84% 1013.4 hPa 0 mm - 734 W/m² -
1788449452 27.22° C 84% 1013.4 hPa 0 mm - 774 W/m² -
1788449148 26.11° C 84% 1013.4 hPa 0 mm - 687 W/m² -
1788448844 26.67° C 88% 1013.3 hPa 0 mm - 634 W/m² -
1788448544 26.11° C 89% 1013 hPa 0 mm - 370 W/m² -
1788448239 26.11° C 90% 1013 hPa 0 mm - 170 W/m² -
1788447938 26.11° C 88% 1012.8 hPa 0 mm - 135 W/m² -
1788447634 26.11° C 87% 1012.6 hPa 0 mm - 111 W/m² -
1788447333 26.11° C 85% 1012.7 hPa 0 mm - 95 W/m² -

* Rain latest hour (hover to see other rain measurements)
** Current wind speed in m/s (hover to see current wind gust speed)